COSMOS 1275 DEB, 17621

Orbit data source: Space-Track

COSMOS 1275 DEB, 17621 is space debris in LEO originally from a launch on Thu, 04 Jun 1981 UTC launched from the Plesetsk Missile And Space Complex (PKMTR). Debris objects in space refer to the collection of defunct objects orbiting the Earth. Examples of debris include non-operational satellites, rocket bodies, and fragments generated from explosions, collisions, or faulty payload assembly.

Loading next visibility...
Identifier
17621, 1981-053KQ
Orbit
LEO
Country
Flag of CISCIS
Related business
Manufacturer
Unknown
Mission
Spacecraft
Bus & Motor
Unknown
Mass
Unknown
Launch date (UTC)
1981-06-04 (45 years ago)
Launch vehicle
Unknown
Launch site
Plesetsk Missile And Space Complex (PKMTR)
Object type
Payload
Rocket body
Debris
Shape & HBR
Unknown shape, 0.1 m
Radar Cross Section
Small (<0.1 m²)

Expand to show TLE details & history
Last TLE update: 17 hours ago

TLE from 17 hours ago
0 COSMOS 1275 DEB
1 17621U 81053KQ  26145.19859362  .00005094  00000-0  13522-2 0  9998
2 17621  82.7769 230.3655 0023163 336.3032  23.7095 14.48377130104455
Epoch: 2026-05-25T04:45Z
TLE epoch observation values (Epoch: 2026-05-25T04:45:58.488Z)
Latitude
-0.00009°
Longitude
-83.91803°
Altitude
718.877 km
Speed
7.504 km/s
True Right ascension
15h 21m 27s
True Declination
0° 00' 00"
Sunlit
Object was in full shadow at epoch
Visualization orbit readout
Latitude
Unknown
Longitude
Unknown
Altitude
Unknown
Speed
Unknown
Apparent Right ascension
Unknown
Apparent Declination
Unknown
Sunlit
N/A
Visualization observer readout
Local Sidereal Time
07:19:58
Azimuth
Unknown
Elevation
Unknown
Doppler factor
Unknown
Orbital elements
Apogee altitude
744.469 km
Perigee altitude
711.549 km
Semi-major axis
7,106.146 km
Eccentricity
0.00232
Inclination
82.7769°
RAAN
230.3655°
Arg. of periapsis
336.3032°
True anomaly
23.81651°
Mean anomaly
23.7095°
Eccentric anomaly
23.76298°
Mean motion
3.6232 °/min
Orbital period
99.36 mins
BSTAR
0.0013522
Loading maneuver chart data...
Computing Atmospheric mass density...
Loading historical data...
Loading historical data...
Loading historical data...
Loading historical data...
Loading historical data...
Loading historical data...
Loading historical data...

Documentation

Showing up to 5 results
|